Regional Weather Roundup
Issued by NWS

Home | Current Version | Previous Version | Graphics & Text | Print | Product List | Glossary On
Versions: 1 2 3 4 5 6 7 8 9 10 11 12 13 14 15 16 17 18 19 20 21 22 23 24 25 26 27 28 29 30 31 32 33 34 35 36 37 38 39 40 41 42 43 44 45 46 47 48 49
000
ASUS45 KCYS 182310
RWRWY

WYOMING REGIONAL WEATHER ROUNDUP
NATIONAL WEATHER SERVICE CHEYENNE WY
500 PM MDT SAT APR 18 2015

NOTE:  "FAIR" INDICATES FEW OR NO CLOUDS BELOW 12,000 FEET
WITH NO SIGNIFICANT WEATHER AND/OR OBSTRUCTIONS TO VISIBILITY.

WYZ001-190000-
YELLOWSTONE NATIONAL PARK

CITY           SKY/WX    TMP DP  RH WIND       PRES   REMARKS
LK YELLOWSTONE   N/A     48  18  30 MISG      30.11R
W YELLOWSTONE  NOT AVBL

$$
WYZ002>013-054>058-071-098>099-190000-
NORTHERN WYOMING

CITY           SKY/WX    TMP DP  RH WIND       PRES   REMARKS
JACKSON        FAIR      61  18  18 NW9G18    30.00F
CODY           CLOUDY    46  30  53 N24G36    30.11R
GREYBULL       FAIR      60  33  36 N38G51    29.96R
WORLAND        FAIR      64  26  23 N25G36    29.91S
SHERIDAN       CLOUDY    55  33  43 N24G32    30.03R
BUFFALO        LGT RAIN  53  34  48 NW32G45   30.00R
GILLETTE       LGT RAIN  50  42  74 N18       29.94R
HULETT         MOCLDY    52  41  66 E7        29.94R
NEWCASTLE      RAIN      45  45 100 NW5       29.94R

$$
WYZ014>020-022>026-101>103-190000-
CENTRAL WYOMING

CITY           SKY/WX    TMP DP  RH WIND       PRES   REMARKS
BIG PINEY      FAIR      61  11  14 N20G36    29.99R
PINEDALE       MOCLDY    59  10  14 NW21G31   29.99R
DUBOIS         MOCLDY    55  14  19 NW14G23   29.98S
LANDER         FAIR      58  26  29 N25G32    29.94R
RIVERTON       FAIR      61  25  25 NE30G41   29.94S
CASPER         LGT RAIN  40  36  86 NE7       29.96S
DOUGLAS        CLOUDY    36  34  92 NW7       30.01R WCI  30

$$
WYZ021-027>030-104>119-190000-
SOUTHERN WYOMING

CITY           SKY/WX    TMP DP  RH WIND       PRES   REMARKS
EVANSTON       FAIR      59  22  24 NW23G31   30.02S
KEMMERER       FAIR      59  18  20 NW15G23   30.00S
FORT BRIDGER   PTCLDY    59  21  23 NW26      30.01R
ROCK SPRINGS   FAIR      56  26  31 NE24G33   29.95F
DIXON          RAIN      37  34  89 N9        30.05R WCI  30
RAWLINS        CLOUDY    37  36  96 NE8       30.01R WCI  31
SARATOGA       LGT SNOW  32  32 100 N17G25    30.01R VSB 3/4 WCI  21
LARAMIE        CLOUDY    35  31  85 N10       29.95R WCI  27
CHEYENNE       CLOUDY    41  33  73 NE14      29.92R
TORRINGTON     FAIR      58  37  45 SW6       29.86R
PINE BLUFFS    FAIR      48  32  53 W5        29.87F

$$



USA.gov is the U.S. government's official web portal to all federal, state and local government web resources and services.